FENGYUN 1C DEB, 38500

Orbit data source: Space-Track

FENGYUN 1C DEB, 38500 is space debris in SSO originally from a launch on Mon, 10 May 1999 UTC launched from the Taiyaun Space Center, China (TSC). Fengyun 1C debris stems from the Chinese weather satellite Fengyun-1C, which was intentionally destroyed by a Chinese anti-satellite missile in 2007. This event dramatically increased the amount of space debris, with thousands of trackable fragments posing hazards to satellites and human spaceflight. The Fengyun 1C debris cloud has become a focal point in discussions about space sustainability and the need for international regulations to prevent the creation of new debris.

Loading next visibility...
Identifier
38500, 1999-025ESK
Orbit
SSO
Country
Flag of CNCN / PRC
Related business
Manufacturer
Unknown
Mission
Spacecraft
Bus & Motor
Unknown
Mass
Unknown
Launch date (UTC)
1999-05-10 (27 years ago)
Launch vehicle
Unknown
Launch site
Taiyaun Space Center, China (TSC)
Object type
Payload
Rocket body
Debris
Shape & HBR
Unknown shape, 0.1 m
Radar Cross Section
Small (<0.1 m²)

Expand to show TLE details & history
Last TLE update: 2 months ago

TLE from 2 months ago
0 FENGYUN 1C DEB
1 38500U 99025ESK 26215.43192318  .00001315  00000-0  10516-2 0  9993
2 38500  98.6424 289.4724 0195954 316.2987  42.2797 13.83987255264460
Epoch: 2026-08-03T10:21Z
TLE epoch observation values (Epoch: 2026-08-03T10:21:58.162Z)
Latitude
-0.00002°
Longitude
-178.03506°
Altitude
847.689 km
Speed
7.482 km/s
True Right ascension
19h 17m 53s
True Declination
0° 00' 00"
Sunlit
Object was in full shadow at epoch
Visualization orbit readout
Latitude
Unknown
Longitude
Unknown
Altitude
Unknown
Speed
Unknown
Apparent Right ascension
Unknown
Apparent Declination
Unknown
Sunlit
N/A
Visualization observer readout
Local Sidereal Time
06:10:53
Azimuth
Unknown
Elevation
Unknown
Doppler factor
Unknown
Orbital elements
Apogee altitude
1,090.519 km
Perigee altitude
803.442 km
Semi-major axis
7,325.118 km
Eccentricity
0.0196
Inclination
98.6424°
RAAN
289.4724°
Arg. of periapsis
316.2987°
True anomaly
43.81801°
Mean anomaly
42.2797°
Eccentric anomaly
43.04606°
Mean motion
3.46195 °/min
Orbital period
103.99 mins
BSTAR
0.0010516
Loading maneuver chart data...
Computing Atmospheric mass density...

Documentation

Showing up to 5 results
|